Weather History for Sparta, TN

Change the Weather History Date:

Wednesday, October 10, 2012

  Actual Average (KCSV) Record (KCSV)
Temperature  
Mean Temperature 10 °C 15 °C  
Max Temperature 16 °C 21 °C 28 °C (1980)
Min Temperature 3 °C 9 °C -2 °C (2000)
Degree Days  
Heating Degree Days 16    
Month to date heating degree days  
Since 1 July heating degree days  
Cooling Degree Days 0    
Month to date cooling degree days  
Year to date cooling degree days  
Moisture  
Dew Point 9 °C    
Average Humidity 93    
Maximum Humidity 100    
Minimum Humidity 67    
Precipitation  
Precipitation 0.0 mm 2.54 mm 1.47 mm (1986)
Month to date precipitation 1.02  
Year to date precipitation 43.02  
Sea Level Pressure  
Sea Level Pressure 1020.82 hPa    
Wind  
Wind Speed 3 km/h ()    
Max Wind Speed 15 km/h    
Max Gust Speed -    
Visibility 15.4 kilometers    
Events      
T = Trace of Precipitation, MM = Missing Value Source: Averaged Metar Reports

Daily Weather History Graph

Daily Weather History Graph

Search for Another Location

Airport:

Trip Planner

Search our weather history database for the weather conditions in past years. The results will help you decide how hot, cold, wet, or windy it might be!

Date:

Astronomy

Oct. 10, 2012 Rise Set
Actual Time 6:45 AM CDT 6:12 PM CDT
Civil Twilight 6:19 AM CDT 6:38 PM CDT
Nautical Twilight 5:49 AM CDT 7:07 PM CDT
Astronomical Twilight 5:19 AM CDT 7:37 PM CDT
Moon 1:29 AM CDT (10/10) 3:06 PM CDT (10/10)
Length of Visible Light 12h 18m
Length of Day
11h 27m
Waning Crescent, 27% of the Moon is Illuminated
Oct 10
Waning Crescent
Oct 15
New
Oct 21
First Quarter
Oct 29
Full
Nov 6
Last Quarter

Hourly Weather History & Observations

Time (CDT) Temp. Dew Point Humidity Pressure Visibility Wind Dir Wind Speed Gust Speed Precip Events Conditions
12:15 AM 9.0 °C 9.0 °C 100% 1017.2 hPa 16.1 km Calm Calm - N/A   Clear
12:35 AM 7.0 °C 6.0 °C 93% 1017.2 hPa 16.1 km Calm Calm - N/A   Clear
12:55 AM 6.0 °C 6.0 °C 100% 1017.5 hPa 14.5 km Calm Calm - N/A   Clear
1:15 AM 6.0 °C 6.0 °C 100% 1017.8 hPa 16.1 km Calm Calm - N/A   Clear
1:35 AM 6.0 °C 6.0 °C 100% 1017.8 hPa 16.1 km Calm Calm - N/A   Clear
1:55 AM 6.0 °C 6.0 °C 100% 1017.8 hPa 11.3 km Calm Calm - N/A   Clear
2:15 AM 7.0 °C 7.0 °C 100% 1017.8 hPa 12.9 km Calm Calm - N/A   Clear
2:35 AM 8.0 °C 7.0 °C 93% 1017.8 hPa 16.1 km Calm Calm - N/A   Clear
2:55 AM 8.0 °C 8.0 °C 100% 1017.8 hPa 16.1 km Calm Calm - N/A   Clear
3:15 AM 8.0 °C 8.0 °C 100% 1018.2 hPa 12.9 km Calm Calm - N/A   Scattered Clouds
3:35 AM 8.0 °C 8.0 °C 100% 1018.2 hPa 16.1 km Calm Calm - N/A   Mostly Cloudy
3:55 AM 9.0 °C 9.0 °C 100% 1018.5 hPa 16.1 km Calm Calm - N/A   Mostly Cloudy
4:15 AM 9.0 °C 9.0 °C 100% 1018.5 hPa 16.1 km Calm Calm - N/A   Overcast
4:35 AM 9.0 °C 9.0 °C 100% 1018.8 hPa 16.1 km Calm Calm - N/A   Overcast
4:55 AM 9.0 °C 9.0 °C 100% 1018.8 hPa 16.1 km Calm Calm - N/A   Overcast
5:15 AM 9.0 °C 9.0 °C 100% 1019.2 hPa 16.1 km SSW 5.6 km/h / 1.5 m/s - N/A   Overcast
5:35 AM 10.0 °C 9.0 °C 94% 1019.2 hPa 16.1 km Calm Calm - N/A   Overcast
5:55 AM 10.0 °C 9.0 °C 94% 1019.5 hPa 16.1 km SSW 7.4 km/h / 2.1 m/s - N/A   Overcast
6:15 AM 10.0 °C 10.0 °C 100% 1019.5 hPa 16.1 km South 5.6 km/h / 1.5 m/s - N/A   Overcast
6:35 AM 10.0 °C 10.0 °C 100% 1019.5 hPa 16.1 km SSW 5.6 km/h / 1.5 m/s - N/A   Overcast
6:55 AM 10.0 °C 10.0 °C 100% 1019.5 hPa 16.1 km SSW 5.6 km/h / 1.5 m/s - N/A   Overcast
7:15 AM 11.0 °C 10.0 °C 94% 1019.5 hPa 16.1 km SSW 5.6 km/h / 1.5 m/s - N/A   Overcast
7:35 AM 11.0 °C 11.0 °C 100% 1019.9 hPa 16.1 km SSW 9.3 km/h / 2.6 m/s - N/A   Overcast
7:55 AM 11.0 °C 11.0 °C 100% 1020.2 hPa 16.1 km SSW 5.6 km/h / 1.5 m/s - N/A   Overcast
8:35 AM 11.0 °C 11.0 °C 100% 1020.2 hPa 16.1 km SSW 5.6 km/h / 1.5 m/s - N/A   Overcast
8:55 AM 12.0 °C 12.0 °C 100% 1020.5 hPa 16.1 km SW 7.4 km/h / 2.1 m/s - N/A   Overcast
9:15 AM 12.0 °C 12.0 °C 100% 1020.5 hPa 16.1 km SSW 5.6 km/h / 1.5 m/s - N/A   Overcast
9:35 AM 12.0 °C 12.0 °C 100% 1020.9 hPa 16.1 km Calm Calm - N/A   Overcast
9:55 AM 13.0 °C 12.0 °C 94% 1020.9 hPa 16.1 km SW 5.6 km/h / 1.5 m/s - N/A   Overcast
10:15 AM 13.0 °C 13.0 °C 100% 1020.9 hPa 16.1 km WSW 5.6 km/h / 1.5 m/s - N/A   Overcast
10:35 AM 13.0 °C 13.0 °C 100% 1021.2 hPa 16.1 km West 9.3 km/h / 2.6 m/s - N/A   Overcast
10:55 AM 14.0 °C 13.0 °C 94% 1021.2 hPa 16.1 km Calm Calm - N/A   Overcast
11:15 AM 14.0 °C 12.0 °C 88% 1021.6 hPa 16.1 km Variable 9.3 km/h / 2.6 m/s - N/A   Overcast
11:55 AM 13.0 °C 12.0 °C 94% 1021.6 hPa 16.1 km NW 9.3 km/h / 2.6 m/s - N/A   Overcast
12:15 PM 14.0 °C 12.0 °C 88% 1021.6 hPa 16.1 km NW 11.1 km/h / 3.1 m/s - N/A   Overcast
12:35 PM 14.0 °C 12.0 °C 88% 1021.6 hPa 16.1 km NW 11.1 km/h / 3.1 m/s - N/A   Overcast
12:55 PM 14.0 °C 12.0 °C 88% 1021.2 hPa 16.1 km Calm Calm - N/A   Overcast
1:15 PM 15.0 °C 13.0 °C 88% 1021.2 hPa 16.1 km WNW 11.1 km/h / 3.1 m/s - N/A   Mostly Cloudy
1:35 PM 16.0 °C 12.0 °C 77% 1020.9 hPa 16.1 km Variable 9.3 km/h / 2.6 m/s - N/A   Overcast
1:55 PM 16.0 °C 12.0 °C 77% 1020.9 hPa 16.1 km Variable 7.4 km/h / 2.1 m/s - N/A   Overcast
2:15 PM 16.0 °C 12.0 °C 77% 1020.9 hPa 16.1 km West 9.3 km/h / 2.6 m/s - N/A   Overcast
2:35 PM 15.0 °C 12.0 °C 82% 1020.9 hPa 16.1 km NW 11.1 km/h / 3.1 m/s - N/A   Overcast
2:55 PM 16.0 °C 12.0 °C 77% 1020.9 hPa 16.1 km NW 11.1 km/h / 3.1 m/s - N/A   Overcast
3:15 PM 15.0 °C 12.0 °C 82% 1020.9 hPa 16.1 km Variable 9.3 km/h / 2.6 m/s - N/A   Mostly Cloudy
3:35 PM 16.0 °C 11.0 °C 72% 1020.9 hPa 16.1 km NW 14.8 km/h / 4.1 m/s - N/A   Partly Cloudy
3:55 PM 16.0 °C 12.0 °C 77% 1021.2 hPa 16.1 km North 14.8 km/h / 4.1 m/s - N/A   Mostly Cloudy
4:15 PM 14.0 °C 11.0 °C 82% 1021.2 hPa 16.1 km Variable 9.3 km/h / 2.6 m/s - N/A   Scattered Clouds
4:35 PM 16.0 °C 10.0 °C 68% 1021.2 hPa 16.1 km NNW 5.6 km/h / 1.5 m/s - N/A   Clear
4:55 PM 15.0 °C 10.0 °C 72% 1021.6 hPa 16.1 km North 7.4 km/h / 2.1 m/s - N/A   Mostly Cloudy
5:15 PM 14.0 °C 8.0 °C 67% 1021.6 hPa 16.1 km Variable 11.1 km/h / 3.1 m/s - N/A   Partly Cloudy
5:35 PM 14.0 °C 8.0 °C 67% 1021.6 hPa 16.1 km North 7.4 km/h / 2.1 m/s - N/A   Clear
5:55 PM 13.0 °C 8.0 °C 72% 1021.6 hPa 16.1 km Calm Calm - N/A   Clear
6:15 PM 11.0 °C 8.0 °C 82% 1021.9 hPa 16.1 km Calm Calm - N/A   Clear
6:35 PM 8.0 °C 8.0 °C 100% 1022.2 hPa 16.1 km Calm Calm - N/A   Clear
6:55 PM 7.0 °C 7.0 °C 100% 1022.2 hPa 16.1 km Calm Calm - N/A   Clear
7:15 PM 7.0 °C 6.0 °C 93% 1022.6 hPa 16.1 km Calm Calm - N/A   Clear
7:35 PM 6.0 °C 6.0 °C 100% 1022.9 hPa 16.1 km Calm Calm - N/A   Clear
7:55 PM 6.0 °C 6.0 °C 100% 1022.9 hPa 16.1 km Calm Calm - N/A   Clear
8:15 PM 6.0 °C 5.0 °C 93% 1023.2 hPa 16.1 km Calm Calm - N/A   Clear
8:35 PM 5.0 °C 5.0 °C 100% 1023.2 hPa 16.1 km Calm Calm - N/A   Clear
8:55 PM 4.0 °C 4.0 °C 100% 1023.6 hPa 16.1 km Calm Calm - N/A   Clear
9:15 PM 4.0 °C 4.0 °C 100% 1023.6 hPa 16.1 km Calm Calm - N/A   Clear
9:35 PM 4.0 °C 4.0 °C 100% 1023.9 hPa 16.1 km Calm Calm - N/A   Clear
9:55 PM 3.0 °C 3.0 °C 100% 1023.9 hPa 16.1 km Calm Calm - N/A   Clear
10:15 PM 3.0 °C 3.0 °C 100% 1024.3 hPa 12.9 km Calm Calm - N/A   Clear
10:35 PM 3.0 °C 3.0 °C 100% 1023.9 hPa 12.9 km Calm Calm - N/A   Clear
10:55 PM 3.0 °C 3.0 °C 100% 1024.3 hPa 11.3 km Calm Calm - N/A   Clear
11:15 PM 3.0 °C 3.0 °C 100% 1023.9 hPa 4.0 km Calm Calm - N/A   Clear
11:35 PM 3.0 °C 3.0 °C 100% 1023.9 hPa 11.3 km Calm Calm - N/A   Clear
11:55 PM 3.0 °C 3.0 °C 100% 1023.9 hPa 4.8 km Calm Calm - N/A   Clear